Regional Weather Roundup
Issued by NWS

Home | Current Version | Previous Version | Graphics & Text | Print | Product List | Glossary On
Versions: 1 2 3 4 5 6 7 8 9 10 11 12 13 14 15 16 17 18 19 20 21 22 23 24 25 26 27 28 29 30 31 32 33 34 35 36 37 38 39 40 41 42 43 44 45 46 47 48 49 50
137
ASUS43 KFSD 182210
RWRSD

WEATHER ROUNDUP FOR SOUTH DAKOTA
NATIONAL WEATHER SERVICE SIOUX FALLS SD
500 PM CDT WED OCT 18 2017

NOTE: "FAIR" INDICATES FEW OR NO CLOUDS BELOW 12,000 FEET WITH NO
SIGNIFICANT WEATHER AND/OR OBSTRUCTIONS TO VISIBILITY.


SDZ001>005-009-010-012>017-182300-
NORTHWEST AND NORTH CENTRAL SOUTH DAKOTA

CITY           SKY/WX    TMP DP  RH WIND       PRES   REMARKS
BUFFALO          N/A     63  25  23 SW9       29.92F
FAITH            N/A     63  21  20 SW10      30.00F
MOBRIDGE       SUNNY     65  23  20 W10       29.97F
$$

SDZ012>016-024>037-041>051-057-063-072>074-182300-
SOUTHWEST AND SOUTH CENTRAL SOUTH DAKOTA

CITY           SKY/WX    TMP DP  RH WIND       PRES   REMARKS
RAPID CTY ARPT SUNNY     65  26  23 S16       30.03F
PIERRE         SUNNY     64  20  18 N6        30.02F
CUSTER         SUNNY     59  22  24 SW8       30.11S
ELLSWORTH AFB  SUNNY     65  25  22 S16       30.02F
PHILIP         SUNNY     65  25  22 S3        30.04S
PINE RIDGE     SUNNY     69  28  21 SW8       30.06F
SPEARFISH      FAIR      61  28  29 SE9       30.02F
WINNER         FAIR      69  32  25 NE6       30.06R
$$

SDZ004>011-016>023-039-040-182300-
NORTHEAST SOUTH DAKOTA

CITY           SKY/WX    TMP DP  RH WIND       PRES   REMARKS
ABERDEEN       SUNNY     60  25  26 W15       30.00S
WATERTOWN      MOSUNNY   57  27  31 NW10      30.00R
BROOKINGS      SUNNY     63  27  25 NW7       30.00R
SISSETON         N/A     62  25  24 W16G24    29.95S
$$

SDZ017-020-022-023-036>040-048>070-182300-
SOUTHEAST SOUTH DAKOTA

CITY           SKY/WX    TMP DP  RH WIND       PRES   REMARKS
SIOUX FALLS    PTSUNNY   70  37  29 N9        29.99R
HURON          SUNNY     64  25  22 N8        30.02R
CHAMBERLAIN    SUNNY     68  31  25 CALM      30.04R
MITCHELL       SUNNY     67  20  16 N10       30.03R
YANKTON        SUNNY     71  38  29 NW13      30.00R
$$

ABBREVIATIONS USED IN REMARKS
   TC - TEMPERATURE IN CELSIUS
  WCI - WIND CHILL INDEX
   HX - HEAT INDEX
  VSB - VISIBILITY





USA.gov is the U.S. government's official web portal to all federal, state and local government web resources and services.